Visibility
15.0 15.0 15.0 15.0 15.0 15.0 15.0 15.0 15.0 15.0 15.0 15.0 15.0 15.0 15.0 15.0 15.0 15.0 15.0 15.0 15.0 15.0 15.0 15.0 15.0 15.0 15.0 15.0 15.0 15.0 15.0 15.0 15.0 15.0 15.0 15.0 15.0 15.0 15.0 15.0 15.0 15.0 15.0 15.0 15.0 15.0 15.0
15.0 15.0 15.0 15.0 15.0 14.3 15.0 15.0 15.0 15.0 15.0 15.0 15.0 15.0 15.0 15.0 15.0 15.0 15.0 15.0 15.0 15.0 15.0 15.0 15.0 15.0 15.0 15.0 15.0 15.0 15.0 15.0 15.0 15.0 15.0 15.0 15.0 15.0 15.0 15.0 15.0 15.0 15.0 15.0 15.0 15.0 15.0
15.0 15.0 15.0 15.0 15.0 15.0 15.0 15.0 15.0 15.0 15.0 15.0 15.0 15.0 15.0 15.0 15.0 15.0 15.0 15.0 15.0 15.0 15.0 15.0 15.0 15.0 15.0 15.0 15.0 15.0 15.0 15.0 15.0 15.0 15.0 15.0 15.0 14.9 15.0 15.0 15.0 15.0 5.2 8.9 15.0 15.0 15.0
15.0 15.0 15.0 15.0 15.0 15.0 14.4 15.0 15.0 15.0 15.0 15.0 15.0 15.0 15.0 15.0 15.0 15.0 15.0 15.0 15.0 15.0 12.2 15.0 15.0 15.0 15.0 15.0 15.0 15.0 15.0 15.0 15.0 15.0 15.0 15.0 15.0 15.0 15.0 15.0 15.0 15.0 7.7 14.9 15.0 15.0 15.0
15.0 15.0 15.0 15.0 15.0 15.0 13.0 14.7 15.0 15.0 15.0 15.0 15.0 15.0 15.0 15.0 15.0 15.0 15.0 15.0 15.0 15.0 14.6 10.4 15.0 14.8 15.0 15.0 15.0 15.0 15.0 15.0 15.0 15.0 15.0 15.0 15.0 15.0 14.9 15.0 11.8 15.0 15.0 15.0 15.0 15.0 15.0
4.3 15.0 15.0 15.0 15.0 15.0 14.3 15.0 15.0 15.0 15.0 15.0 15.0 15.0 15.0 15.0 15.0 15.0 14.9 15.0 15.0 15.0 15.0 15.0 15.0 3.2 15.0 15.0 15.0 15.0 15.0 15.0 15.0 15.0 15.0 15.0 15.0 15.0 15.0 14.4 7.3 15.0 14.2 15.0 15.0 15.0 15.0
10.6 5.5 15.0 14.1 15.0 15.0 15.0 15.0 12.4 12.3 15.0 11.1 15.0 15.0 15.0 15.0 15.0 14.2 15.0 15.0 15.0 15.0 15.0 15.0 15.0 15.0 15.0 15.0 15.0 15.0 15.0 15.0 15.0 15.0 15.0 15.0 15.0 15.0 15.0 15.0 15.0 15.0 15.0 15.0 15.0 15.0 15.0
15.0 14.5 6.8 10.3 15.0 15.0 15.0 15.0 11.3 15.0 15.0 14.8 15.0 15.0 15.0 15.0 13.5 14.3 14.4 15.0 15.0 15.0 0.3 15.0 15.0 15.0 15.0 15.0 15.0 15.0 15.0 15.0 15.0 15.0 15.0 15.0 15.0 15.0 15.0 15.0 15.0 15.0 12.1 15.0 11.8 12.2 13.5
15.0 15.0 2.7 3.6 11.5 13.2 14.6 15.0 15.0 15.0 13.3 10.5 15.0 15.0 15.0 15.0 15.0 12.8 15.0 15.0 15.0 15.0 0.1 14.8 15.0 15.0 15.0 15.0 15.0 15.0 15.0 15.0 15.0 15.0 15.0 15.0 15.0 15.0 15.0 15.0 15.0 15.0 14.7 15.0 8.5 15.0 6.5
15.0 15.0 13.2 8.6 5.2 14.8 10.6 9.0 10.4 11.1 10.5 10.5 15.0 15.0 15.0 15.0 15.0 15.0 15.0 15.0 15.0 15.0 0.0 0.5 7.1 10.9 15.0 15.0 8.0 15.0 15.0 15.0 15.0 15.0 15.0 14.7 15.0 15.0 15.0 15.0 15.0 15.0 15.0 14.4 15.0 5.2 13.8
15.0 14.2 15.0 15.0 15.0 15.0 10.7 8.4 10.5 9.0 14.7 15.0 15.0 15.0 15.0 15.0 15.0 15.0 15.0 15.0 15.0 13.7 0.0 15.0 15.0 15.0 15.0 1.6 15.0 15.0 15.0 15.0 15.0 15.0 8.1 5.5 15.0 15.0 15.0 15.0 15.0 15.0 15.0 15.0 8.8 3.3 7.4
15.0 10.1 15.0 9.4 15.0 3.9 11.7 6.9 14.7 8.0 15.0 15.0 15.0 15.0 15.0 14.9 15.0 15.0 15.0 15.0 15.0 0.0 0.2 15.0 15.0 3.2 2.3 15.0 15.0 14.0 15.0 7.0 13.8 7.8 12.9 15.0 15.0 6.0 12.8 15.0 15.0 15.0 15.0 15.0 1.6 9.5 1.7
10.6 9.7 11.0 15.0 11.7 6.3 5.4 8.6 10.6 6.8 12.2 15.0 15.0 15.0 15.0 15.0 15.0 15.0 15.0 15.0 0.0 0.0 9.9 0.1 0.2 15.0 15.0 8.8 9.2 8.4 13.3 14.9 14.6 1.7 0.0 0.1 15.0 8.7 6.6 3.8 15.0 7.9 15.0 0.0 0.0 0.0 1.6
9.2 8.9 6.1 8.3 15.0 10.9 4.3 14.9 15.0 6.6 8.2 14.9 15.0 15.0 15.0 15.0 15.0 15.0 15.0 0.3 0.0 15.0 13.5 13.1 15.0 3.5 0.0 11.3 5.3 8.6 5.7 5.0 9.4 8.2 3.8 11.6 15.0 14.1 15.0 0.1 6.7 11.6 13.9 0.0 0.1 0.1 15.0
14.9 12.7 5.9 5.2 9.7 3.3 3.0 7.7 15.0 7.6 10.6 10.2 11.7 6.1 15.0 15.0 15.0 15.0 13.6 0.0 14.8 9.1 10.4 0.1 0.1 0.0 0.0 0.1 7.9 14.2 13.4 1.1 15.0 15.0 0.0 0.0 0.6 13.3 15.0 15.0 6.2 13.0 0.0 3.4 0.2 15.0 15.0
9.6 10.0 5.3 9.8 7.2 2.2 3.4 6.1 14.9 4.6 9.4 12.7 0.5 1.4 15.0 8.7 13.8 14.0 0.1 7.8 15.0 13.3 15.0 3.2 0.0 15.0 3.4 6.5 13.2 15.0 8.9 15.0 15.0 15.0 15.0 11.6 0.1 12.2 8.7 11.3 12.6 10.2 14.6 0.1 7.2 15.0 14.8
12.9 8.3 10.3 13.0 6.2 2.5 4.1 14.8 10.1 2.5 7.0 12.2 15.0 0.4 15.0 7.2 7.8 0.0 0.0 5.8 15.0 15.0 14.2 0.1 15.0 15.0 15.0 15.0 15.0 15.0 15.0 15.0 15.0 15.0 15.0 12.4 0.1 1.7 5.4 0.6 12.6 0.1 0.3 7.6 3.1 7.6 15.0
11.7 11.2 9.9 5.6 2.8 3.3 6.0 15.0 3.4 2.8 4.0 7.0 13.2 0.1 15.0 10.2 0.0 7.1 0.1 15.0 13.5 15.0 9.0 6.2 15.0 15.0 15.0 15.0 15.0 15.0 15.0 14.7 15.0 15.0 15.0 10.4 0.0 0.0 1.1 15.0 12.6 15.0 5.4 5.2 11.6 12.8 8.0
15.0 12.8 7.0 4.8 2.8 3.4 9.6 4.5 14.4 7.7 5.7 13.7 11.7 0.4 4.0 11.9 0.0 0.0 15.0 15.0 10.4 10.2 10.8 6.6 15.0 15.0 15.0 15.0 15.0 15.0 15.0 15.0 15.0 15.0 15.0 5.9 0.0 0.1 0.1 0.2 4.7 1.9 6.1 15.0 15.0 15.0 10.3
15.0 15.0 8.3 4.7 3.8 4.1 3.6 3.6 2.6 8.9 15.0 15.0 13.6 0.1 0.1 0.2 15.0 15.0 15.0 0.3 0.1 15.0 15.0 15.0 15.0 15.0 15.0 15.0 15.0 15.0 15.0 15.0 15.0 15.0 15.0 4.5 8.2 0.0 0.7 14.8 15.0 15.0 15.0 15.0 15.0 15.0 15.0
15.0 14.8 10.9 5.6 7.3 11.2 4.6 6.1 1.5 5.2 15.0 15.0 15.0 15.0 12.6 0.1 3.8 15.0 12.0 15.0 1.4 0.1 15.0 15.0 15.0 15.0 15.0 15.0 15.0 15.0 15.0 15.0 15.0 15.0 15.0 4.4 0.1 10.3 15.0 15.0 15.0 15.0 15.0 15.0 15.0 15.0 15.0
15.0 15.0 10.2 13.8 5.7 4.5 12.9 14.1 1.5 6.0 9.2 2.2 15.0 15.0 14.2 12.7 15.0 15.0 15.0 14.8 11.2 3.9 1.3 15.0 15.0 15.0 15.0 15.0 15.0 15.0 15.0 15.0 15.0 15.0 15.0 15.0 15.0 15.0 15.0 15.0 15.0 15.0 15.0 15.0 15.0 15.0 15.0
15.0 15.0 10.3 10.8 7.8 9.4 12.7 3.2 2.5 6.0 9.1 4.2 12.9 15.0 15.0 14.9 15.0 14.2 15.0 15.0 15.0 6.4 6.1 15.0 15.0 15.0 15.0 15.0 15.0 15.0 15.0 15.0 15.0 15.0 15.0 15.0 15.0 15.0 15.0 15.0 15.0 15.0 15.0 15.0 15.0 15.0 15.0
15.0 15.0 15.0 15.0 11.9 13.7 11.3 2.3 2.8 8.3 10.7 15.0 15.0 15.0 10.2 0.7 15.0 15.0 15.0 15.0 15.0 5.5 4.8 12.1 15.0 12.5 11.0 15.0 14.6 15.0 15.0 15.0 15.0 15.0 15.0 15.0 15.0 15.0 15.0 15.0 15.0 15.0 15.0 15.0 15.0 15.0 15.0
15.0 15.0 15.0 11.9 15.0 12.3 11.4 2.7 5.5 8.4 11.5 15.0 15.0 15.0 7.6 14.7 15.0 15.0 15.0 15.0 14.6 12.5 2.1 7.0 13.4 15.0 14.2 15.0 11.2 13.1 7.2 15.0 15.0 15.0 15.0 15.0 15.0 15.0 15.0 15.0 15.0 15.0 15.0 15.0 15.0 15.0 15.0
15.0 15.0 15.0 15.0 11.1 12.4 8.8 10.7 14.9 9.1 15.0 13.5 15.0 15.0 10.0 14.8 2.7 15.0 15.0 15.0 8.1 6.4 1.4 7.3 15.0 15.0 15.0 14.7 15.0 0.0 0.4 2.7 0.1 12.3 15.0 15.0 15.0 15.0 15.0 15.0 15.0 15.0 15.0 15.0 15.0 15.0 15.0
15.0 15.0 15.0 15.0 15.0 15.0 15.0 6.4 6.4 6.7 11.7 14.9 15.0 15.0 11.9 13.4 15.0 15.0 15.0 15.0 7.2 7.1 7.9 10.9 15.0 15.0 13.6 15.0 15.0 15.0 15.0 7.0 0.0 0.2 5.4 15.0 13.8 0.0 15.0 15.0 15.0 15.0 15.0 15.0 15.0 15.0 15.0
15.0 15.0 15.0 15.0 15.0 15.0 15.0 7.1 7.2 4.5 13.6 14.7 10.2 15.0 15.0 15.0 15.0 15.0 15.0 15.0 5.7 1.5 6.3 15.0 12.0 9.5 9.4 15.0 15.0 15.0 15.0 15.0 12.7 15.0 15.0 13.5 10.8 0.3 5.7 0.2 6.1 15.0 15.0 15.0 15.0 15.0 15.0
15.0 15.0 15.0 15.0 10.6 13.9 15.0 6.5 3.2 7.3 9.9 12.5 0.3 15.0 15.0 2.9 15.0 15.0 15.0 15.0 10.4 8.6 4.9 7.4 8.6 15.0 15.0 15.0 15.0 15.0 15.0 15.0 15.0 15.0 15.0 15.0 15.0 15.0 14.9 14.7 15.0 15.0 15.0 15.0 15.0 15.0 15.0